[[{"header":{"parameterUnit":"m.s-1","parameterCategory":1,"la1":30.2991,"la2":30.254,"lo1":-89.0895,"lo2":-89.0444,"dy":0.0017,"dx":0.0017,"nx":28,"ny":28,"refTime":"2024-12-09T09:00:00:Z","depth":0,"parameterNumber":2,"parameterNumberName":"U-component_of_WINDS"},"data":[0,0,0,0,0,0,0,0,0,0,0,0,0,0,0,0,0,0,0,0,0,0,0,0,0,0,0,0,0,0,0,0,0,0,0,0,0,0,0,0,0,0,0,0,0,0,0,0,0,0,0,0,0,0,0,0,0,0,-0.303,-0.3031,0,-0.3111,-0.3112,-0.3113,-0.3159,-0.3159,-0.3159,-0.3159,-0.3242,-0.3244,-0.3246,0,0,0,0,0,0,0,0,0,0,0,0,0,-0.2914,-0.2916,-0.303,-0.3031,-0.3032,-0.3111,-0.3112,-0.3113,-0.3159,-0.3159,-0.3159,-0.3159,-0.3241,-0.3244,-0.3246,0,0,0,0,0,0,0,0,0,0,0,0,0,-0.2977,-0.2917,-0.303,-0.3064,-0.3068,-0.3111,-0.3112,-0.3113,-0.3159,-0.3159,-0.3159,-0.3159,-0.3241,-0.3244,-0.3247,-0.3261,0,0,-0.3256,-0.3257,0,0,0,0,0,0,0,0,-0.2973,-0.2981,-0.3058,-0.3062,-0.3067,-0.3125,-0.3101,-0.3163,-0.3158,-0.3124,-0.3159,-0.3159,-0.3203,-0.3209,-0.3224,-0.3265,-0.3268,-0.3256,-0.3258,-0.326,-0.326,0,0,0,0,0,0,0,-0.2969,-0.2978,-0.3062,-0.3059,-0.3064,-0.3075,-0.3084,-0.3113,-0.3161,-0.3127,-0.3131,-0.314,-0.3205,-0.3221,-0.3226,-0.327,-0.3256,-0.3259,-0.3261,-0.3262,-0.3324,-0.3324,0,0,0,0,0,0,-0.2959,-0.2974,-0.306,-0.3065,-0.3019,-0.3077,-0.3087,-0.3106,-0.3161,-0.317,-0.3139,-0.3142,-0.3215,-0.3222,-0.3229,-0.3248,-0.3259,-0.3262,-0.3264,-0.3325,-0.3324,-0.3324,0,0,0,0,0,0,-0.2956,-0.2966,-0.3056,-0.302,-0.3032,-0.3079,-0.3099,-0.3107,-0.3123,-0.317,-0.3179,-0.3146,-0.3216,-0.3225,-0.3252,-0.3252,-0.3264,-0.3267,-0.3325,-0.3325,-0.3324,-0.3287,0,0,0,0,0,0,-0.2953,-0.2965,-0.2971,-0.302,-0.3034,-0.3078,-0.3099,-0.3109,-0.3128,-0.3132,-0.3179,-0.3187,-0.3217,-0.3247,-0.3255,-0.3256,-0.3269,-0.3325,-0.3325,-0.3324,-0.3289,-0.3286,-0.3283,0,0,0,0,0,-0.2948,-0.2958,-0.2971,-0.2982,-0.3043,-0.3078,-0.3086,-0.312,-0.3128,-0.3134,-0.3164,-0.3186,-0.325,-0.325,-0.3259,-0.3261,-0.3325,-0.3325,-0.3324,-0.329,-0.3286,-0.3283,0,0,0,0,0,0,-0.2909,-0.2965,-0.2981,-0.3007,-0.3037,-0.3086,-0.3095,-0.3115,-0.3144,-0.3147,-0.3187,-0.3197,-0.322,-0.3244,-0.3242,-0.3277,-0.329,-0.3292,-0.3261,-0.3258,-0.3255,-0.3249,-0.3272,0,0,0,0,0,-0.2903,-0.2927,-0.2975,-0.2993,-0.3008,-0.3048,-0.3065,-0.3088,-0.3122,-0.3135,-0.3167,-0.3199,-0.3226,-0.3243,-0.3271,-0.3292,-0.3302,-0.3298,-0.3295,-0.3293,-0.3293,-0.3304,-0.3303,-0.3323,-0.3323,-0.3323,0,0,-0.2892,-0.2925,-0.2938,-0.2986,-0.3013,-0.3036,-0.3059,-0.3084,-0.3101,-0.3139,-0.3166,-0.319,-0.3228,-0.3252,-0.3264,-0.3272,-0.329,-0.3292,-0.329,-0.3292,-0.3304,-0.3302,-0.33,-0.3322,-0.3322,-0.3323,0,0,-0.2883,-0.2911,-0.2928,-0.2954,-0.2993,-0.302,-0.3024,-0.307,-0.3087,-0.3115,-0.3143,-0.3164,-0.3211,-0.3236,-0.3255,-0.3253,-0.3273,-0.3261,-0.3246,-0.3257,-0.3255,-0.3254,-0.3252,-0.3251,-0.3261,-0.3261,-0.3261,0,-0.2864,-0.29,-0.2935,-0.2957,-0.2976,-0.3011,-0.3028,-0.3051,-0.3097,-0.311,-0.3118,-0.3176,-0.3204,-0.3233,-0.3232,-0.3247,-0.3252,-0.3256,-0.3252,-0.3252,-0.3251,-0.3249,-0.3249,-0.3259,-0.326,-0.326,-0.326,0,-0.2874,-0.2898,-0.2908,-0.2951,-0.2971,-0.2991,-0.3028,-0.3044,-0.3065,-0.309,-0.3117,-0.3152,-0.3186,-0.3195,-0.3216,-0.3227,-0.323,-0.3245,-0.3259,-0.3247,-0.3246,-0.3245,-0.3257,-0.3258,-0.3258,-0.3259,0,0,-0.2844,-0.2904,-0.2907,-0.2926,-0.2971,-0.299,-0.301,-0.3044,-0.3056,-0.3087,-0.3104,-0.3142,-0.3155,-0.3176,-0.32,-0.3209,-0.3203,-0.3222,-0.3224,-0.3216,-0.3215,-0.3203,-0.3202,-0.3217,-0.3217,-0.3217,-0.3212,0,-0.2841,-0.2879,-0.2909,-0.2936,-0.2958,-0.299,-0.3007,-0.3036,-0.306,-0.3082,-0.3108,-0.3134,-0.315,-0.3162,-0.3173,-0.3201,-0.3203,-0.3202,-0.3232,-0.3233,-0.3221,-0.3202,-0.319,-0.3184,-0.3212,-0.3212,-0.3212,0,-0.2843,-0.287,-0.2899,-0.2939,-0.295,-0.2965,-0.2996,-0.3017,-0.305,-0.3067,-0.3089,-0.3113,-0.3135,-0.3147,-0.3177,-0.3175,-0.3189,-0.3205,-0.3205,-0.3209,-0.3221,-0.3204,-0.3183,-0.3181,-0.3212,-0.3212,-0.3212,0,-0.2816,-0.2861,-0.2883,-0.2899,-0.2947,-0.2956,-0.2977,-0.301,-0.3027,-0.3055,-0.3066,-0.3096,-0.3112,-0.3134,-0.3165,-0.3171,-0.3191,-0.3206,-0.3205,-0.3204,-0.3208,-0.3207,-0.3187,-0.3218,-0.3218,-0.3218,-0.3218,0,-0.281,-0.2825,-0.2872,-0.2885,-0.2903,-0.2938,-0.2954,-0.2978,-0.3006,-0.3024,-0.3053,-0.307,-0.311,-0.3131,-0.3155,-0.3175,-0.3183,-0.3196,-0.3202,-0.3193,-0.3191,-0.3202,-0.3203,-0.3218,-0.3218,-0.3218,-0.3218,0,-0.2784,-0.2816,-0.2841,-0.2884,-0.2895,-0.2906,-0.2942,-0.2956,-0.2981,-0.3003,-0.301,-0.3049,-0.3074,-0.3107,-0.3144,-0.316,-0.3177,-0.3187,-0.3166,-0.3169,-0.3166,-0.3165,-0.3152,-0.3151,-0.3183,-0.3182,-0.3182,0,-0.2777,-0.279,-0.2833,-0.2847,-0.2866,-0.2888,-0.2905,-0.2939,-0.2956,-0.2992,-0.3001,-0.3029,-0.3053,-0.3092,-0.3123,-0.3151,-0.3161,-0.3155,-0.3166,-0.3155,-0.316,-0.3158,-0.3159,-0.3152,-0.3151,-0.3151,-0.3151,0,-0.2762,-0.2776,-0.28,-0.2828,-0.2847,-0.2871,-0.2897,-0.2906,-0.2945,-0.2962,-0.2988,-0.3006,-0.3042,-0.3069,-0.31,-0.3121,-0.3142,-0.3147,-0.3148,-0.3138,-0.3124,-0.313,-0.3157,-0.3147,-0.3147,-0.3148,-0.3148,-0.3148,-0.2745,-0.2756,-0.2788,-0.2812,-0.2835,-0.2857,-0.2871,-0.2897,-0.2919,-0.2951,-0.2969,-0.2994,-0.3024,-0.3068,-0.3087,-0.3107,-0.3115,-0.3117,-0.3117,-0.3117,-0.3113,-0.3122,-0.3113,-0.3113,-0.3113,-0.3113,-0.3114,0,-0.273,-0.2751,-0.2773,-0.2807,-0.2825,-0.2842,-0.2871,-0.2885,-0.2907,-0.2933,-0.2955,-0.2984,-0.3009,-0.3041,-0.3069,-0.3078,-0.3088,-0.3084,-0.3083,-0.3087,-0.3105,-0.3101,-0.3075,-0.3075,-0.3075,-0.3075,-0.3075,-0.3075,-0.2724,-0.2744,-0.2762,-0.2792,-0.2814,-0.2838,-0.2852,-0.2872,-0.2893,-0.2924,-0.2944,-0.2965,-0.2993,-0.3022,-0.3046,-0.3054,-0.3063,-0.3055,-0.3067,-0.3083,-0.3086,-0.309,-0.3086,-0.3057,-0.3057,-0.3047,-0.3047,-0.3047]},{"header":{"parameterUnit":"m.s-1","parameterCategory":1,"la1":30.2991,"la2":30.254,"lo1":-89.0895,"lo2":-89.0444,"dy":0.0017,"dx":0.0017,"nx":28,"ny":28,"refTime":"2024-12-09T09:00:00:Z","depth":0,"parameterNumber":3,"parameterNumberName":"V-component_of_WINDS"},"data":[0,0,0,0,0,0,0,0,0,0,0,0,0,0,0,0,0,0,0,0,0,0,0,0,0,0,0,0,0,0,0,0,0,0,0,0,0,0,0,0,0,0,0,0,0,0,0,0,0,0,0,0,0,0,0,0,0,0,4.7113,4.7114,0,4.7205,4.7206,4.7207,4.7221,4.722,4.7219,4.7218,4.7308,4.7312,4.7315,0,0,0,0,0,0,0,0,0,0,0,0,0,4.6943,4.6946,4.7112,4.7114,4.7115,4.7205,4.7206,4.7208,4.7221,4.722,4.7219,4.7218,4.7307,4.7311,4.7315,0,0,0,0,0,0,0,0,0,0,0,0,0,4.7024,4.6947,4.7112,4.7132,4.7135,4.7205,4.7206,4.7208,4.7221,4.722,4.7218,4.7217,4.7306,4.7311,4.7315,4.737,0,0,4.733,4.7332,0,0,0,0,0,0,0,0,4.702,4.703,4.7128,4.7131,4.7134,4.72,4.718,4.7262,4.7221,4.7188,4.7218,4.7217,4.7273,4.7281,4.7301,4.7375,4.7379,4.7331,4.7333,4.7336,4.7337,0,0,0,0,0,0,0,4.7014,4.7026,4.7149,4.713,4.7133,4.7136,4.7146,4.7196,4.7236,4.7191,4.7192,4.7203,4.7274,4.7296,4.7303,4.738,4.733,4.7335,4.7338,4.7339,4.7506,4.7508,0,0,0,0,0,0,4.7005,4.7022,4.7146,4.7152,4.7073,4.714,4.7151,4.718,4.7236,4.7243,4.7204,4.7203,4.7288,4.7297,4.7306,4.7377,4.7335,4.734,4.7343,4.7505,4.7506,4.7508,0,0,0,0,0,0,4.7002,4.7016,4.7142,4.7087,4.7103,4.7144,4.7177,4.7183,4.7204,4.7246,4.7253,4.7219,4.7288,4.7299,4.7355,4.738,4.7342,4.7346,4.7503,4.7505,4.7507,4.7517,0,0,0,0,0,0,4.6997,4.7015,4.7037,4.7088,4.7106,4.7191,4.7178,4.7185,4.7213,4.7213,4.7262,4.7269,4.7288,4.7348,4.736,4.7386,4.735,4.7501,4.7504,4.7507,4.7514,4.7519,4.7523,0,0,0,0,0,4.6991,4.7034,4.7038,4.7053,4.7135,4.7193,4.7203,4.7226,4.7215,4.7237,4.7264,4.7267,4.7375,4.7354,4.7367,4.7395,4.7499,4.7503,4.7506,4.7512,4.7518,4.7523,0,0,0,0,0,0,4.6983,4.7041,4.7046,4.7108,4.7145,4.7195,4.7224,4.723,4.7271,4.7269,4.7293,4.7304,4.736,4.7382,4.7358,4.7452,4.7436,4.7442,4.7436,4.7442,4.7446,4.744,4.7354,0,0,0,0,0,4.6989,4.7032,4.708,4.7129,4.7148,4.7183,4.7208,4.7223,4.7262,4.7278,4.7309,4.7346,4.7388,4.7416,4.7457,4.7517,4.7529,4.7542,4.7547,4.755,4.7556,4.7592,4.7599,4.752,4.752,4.752,0,0,4.7001,4.7038,4.7063,4.7129,4.716,4.7204,4.7196,4.7242,4.7275,4.7284,4.7341,4.7364,4.7407,4.7466,4.7494,4.7487,4.758,4.7554,4.7557,4.7561,4.7596,4.7604,4.761,4.7522,4.7522,4.7521,0,0,4.7046,4.7077,4.7124,4.7156,4.7204,4.7226,4.7237,4.7286,4.7303,4.736,4.7369,4.7407,4.7479,4.7511,4.7536,4.7594,4.7599,4.7606,4.7629,4.7664,4.767,4.7676,4.7699,4.7707,4.7611,4.7611,4.7611,0,4.7055,4.7123,4.7146,4.7194,4.7223,4.7235,4.7282,4.7311,4.7369,4.7389,4.738,4.7473,4.7502,4.757,4.7584,4.7603,4.7617,4.7602,4.7668,4.7674,4.7679,4.7702,4.771,4.7612,4.7612,4.7612,4.7612,0,4.7132,4.7179,4.721,4.7269,4.7301,4.7348,4.7378,4.7408,4.7419,4.7442,4.7501,4.7537,4.7587,4.7603,4.7613,4.7673,4.7668,4.7663,4.7648,4.7688,4.7709,4.7718,4.7613,4.7613,4.7613,4.7613,0,0,4.7176,4.7249,4.726,4.7288,4.7342,4.7378,4.7425,4.7476,4.7502,4.7541,4.7582,4.7643,4.764,4.7668,4.7682,4.7712,4.7759,4.7704,4.7706,4.7716,4.783,4.7835,4.7845,4.7762,4.7763,4.7765,4.7827,0,4.723,4.7317,4.734,4.7414,4.7458,4.7471,4.7512,4.7549,4.7572,4.7612,4.7636,4.7681,4.7672,4.769,4.772,4.7747,4.7783,4.7743,4.7801,4.7803,4.7793,4.7856,4.7861,4.7919,4.7836,4.7837,4.7838,0,4.7305,4.7349,4.7427,4.7478,4.7497,4.7534,4.7584,4.7622,4.7664,4.7679,4.7711,4.7723,4.7772,4.7753,4.7822,4.7794,4.7818,4.7835,4.7838,4.7847,4.7825,4.7869,4.7937,4.7947,4.7851,4.785,4.7849,0,4.7333,4.7411,4.7469,4.7492,4.7551,4.7577,4.7603,4.7644,4.7674,4.7716,4.7736,4.7782,4.7808,4.7843,4.7867,4.785,4.7935,4.7917,4.7949,4.7949,4.7969,4.7968,4.8045,4.798,4.798,4.7979,4.7979,0,4.7392,4.7441,4.7483,4.7519,4.7574,4.7599,4.7652,4.7677,4.7714,4.7755,4.7767,4.7804,4.7832,4.7873,4.7891,4.7947,4.7958,4.7972,4.7976,4.7972,4.7971,4.7991,4.7989,4.7982,4.7981,4.7981,4.798,0,4.7434,4.7464,4.7529,4.758,4.7594,4.7633,4.7676,4.7711,4.7735,4.7786,4.78,4.7836,4.7886,4.7912,4.7973,4.7985,4.8049,4.805,4.8036,4.8038,4.8071,4.8068,4.8166,4.8181,4.8103,4.8103,4.8104,0,4.7472,4.751,4.7566,4.7595,4.7622,4.7668,4.77,4.7725,4.7757,4.7809,4.7838,4.7889,4.7931,4.8009,4.8041,4.8088,4.8092,4.8123,4.8099,4.8095,4.8096,4.8095,4.81,4.8128,4.8128,4.8129,4.8129,0,4.7536,4.7549,4.7595,4.7646,4.7683,4.7724,4.7764,4.7787,4.7819,4.7854,4.7907,4.7939,4.8003,4.8054,4.8104,4.8129,4.8135,4.8136,4.8147,4.8145,4.8136,4.8145,4.805,4.8135,4.8134,4.8134,4.8133,4.8133,4.7579,4.7614,4.7661,4.7711,4.7744,4.7782,4.7819,4.7848,4.7892,4.7948,4.7959,4.8015,4.8057,4.8125,4.8152,4.8195,4.8189,4.8203,4.8208,4.8212,4.8215,4.8127,4.8203,4.8203,4.8203,4.8203,4.8203,0,4.7647,4.7677,4.7723,4.7781,4.7821,4.7824,4.7869,4.7902,4.7951,4.7991,4.8033,4.8093,4.8143,4.8178,4.8228,4.8256,4.8261,4.8269,4.8268,4.8275,4.8216,4.8203,4.8265,4.8265,4.8265,4.8265,4.8265,4.8265,4.7687,4.7748,4.7767,4.7845,4.7874,4.7931,4.7957,4.7991,4.8024,4.8091,4.8133,4.8157,4.8195,4.8248,4.8293,4.8303,4.8322,4.833,4.834,4.8285,4.8278,4.8272,4.8261,4.8333,4.8334,4.8396,4.8396,4.8397]}]]